Hourly Weather Abu Ghosh

Today, 5 August, Thursday

Time Temperature Precipitation Wind Pressure Humidity
00:00 +28°C° 0 mm 2 mps 701 mmHg 30%
01:00 +28°C° 0 mm 1 mps 701 mmHg 31%
02:00 +27°C° 0 mm 1 mps 700 mmHg 32%
03:00 +27°C° 0 mm 1 mps 700 mmHg 33%
04:00 +27°C° 0 mm 1 mps 700 mmHg 33%
05:00 +26°C° 0 mm 1 mps 700 mmHg 34%
06:00 +28°C° 0 mm 1 mps 701 mmHg 31%
07:00 +30°C° 0 mm 1 mps 701 mmHg 28%
08:00 +31°C° 0 mm 1 mps 702 mmHg 25%
09:00 +33°C° 0 mm 1 mps 702 mmHg 22%
10:00 +35°C° 0 mm 2 mps 702 mmHg 20%
11:00 +36°C° 0 mm 3 mps 702 mmHg 18%
12:00 +37°C° 0 mm 4 mps 702 mmHg 18%
13:00 +37°C° 0 mm 5 mps 701 mmHg 18%
14:00 +38°C° 0 mm 6 mps 701 mmHg 18%
15:00 +38°C° 0 mm 6 mps 701 mmHg 18%
16:00 +36°C° 0 mm 5 mps 701 mmHg 19%
17:00 +35°C° 0 mm 5 mps 700 mmHg 19%
18:00 +34°C° 0 mm 4 mps 700 mmHg 22%
19:00 +33°C° 0 mm 3 mps 700 mmHg 25%
20:00 +30°C° 0 mm 2 mps 700 mmHg 28%
21:00 +30°C° 0 mm 2 mps 700 mmHg 25%
22:00 +30°C° 0 mm 1 mps 699 mmHg 23%
23:00 +30°C° 0 mm 1 mps 699 mmHg 20%

Tomorrow, 6 August, Friday

Time Temperature Precipitation Wind Pressure Humidity
00:00 +29°C° 0 mm 1 mps 699 mmHg 20%
01:00 +29°C° 0 mm 1 mps 698 mmHg 20%
02:00 +29°C° 0 mm 1 mps 698 mmHg 19%
03:00 +28°C° 0 mm 1 mps 698 mmHg 22%
04:00 +27°C° 0 mm 1 mps 698 mmHg 24%
05:00 +26°C° 0 mm 1 mps 699 mmHg 26%
06:00 +28°C° 0 mm 1 mps 699 mmHg 24%
07:00 +30°C° 0 mm 1 mps 699 mmHg 21%
08:00 +32°C° 0 mm 1 mps 700 mmHg 19%
09:00 +33°C° 0 mm 1 mps 700 mmHg 18%
10:00 +35°C° 0 mm 2 mps 700 mmHg 17%
11:00 +37°C° 0 mm 3 mps 700 mmHg 15%
12:00 +37°C° 0 mm 4 mps 700 mmHg 15%
13:00 +39°C° 0 mm 5 mps 700 mmHg 16%
14:00 +39°C° 0 mm 6 mps 700 mmHg 16%
15:00 +38°C° 0 mm 6 mps 699 mmHg 19%
16:00 +36°C° 0 mm 6 mps 699 mmHg 21%
17:00 +35°C° 0 mm 6 mps 699 mmHg 24%
18:00 +34°C° 0 mm 4 mps 699 mmHg 28%
19:00 +31°C° 0 mm 3 mps 699 mmHg 32%
20:00 +30°C° 0 mm 2 mps 699 mmHg 35%
21:00 +30°C° 0 mm 2 mps 699 mmHg 33%
22:00 +30°C° 0 mm 1 mps 699 mmHg 31%
23:00 +29°C° 0 mm 1 mps 698 mmHg 29%

Day after tomorrow, 7 August, Saturday

Time Temperature Precipitation Wind Pressure Humidity
00:00 +29°C° 0 mm 1 mps 698 mmHg 31%
01:00 +28°C° 0 mm 1 mps 698 mmHg 33%
02:00 +28°C° 0 mm 2 mps 698 mmHg 35%
03:00 +27°C° 0 mm 2 mps 698 mmHg 36%
04:00 +27°C° 0 mm 2 mps 698 mmHg 37%
05:00 +26°C° 0 mm 2 mps 698 mmHg 38%
06:00 +28°C° 0 mm 2 mps 699 mmHg 33%
07:00 +30°C° 0 mm 2 mps 699 mmHg 29%
08:00 +32°C° 0 mm 2 mps 700 mmHg 24%
09:00 +34°C° 0 mm 3 mps 700 mmHg 22%
10:00 +36°C° 0 mm 4 mps 700 mmHg 19%
11:00 +37°C° 0 mm 4 mps 700 mmHg 16%
12:00 +37°C° 0 mm 5 mps 700 mmHg 16%
13:00 +39°C° 0 mm 5 mps 700 mmHg 17%
14:00 +39°C° 0 mm 6 mps 700 mmHg 17%
15:00 +38°C° 0 mm 6 mps 699 mmHg 20%
16:00 +35°C° 0 mm 6 mps 699 mmHg 23%
17:00 +34°C° 0 mm 6 mps 699 mmHg 27%
18:00 +33°C° 0 mm 4 mps 699 mmHg 30%
19:00 +31°C° 0 mm 3 mps 699 mmHg 33%
20:00 +30°C° 0 mm 2 mps 699 mmHg 36%
21:00 +29°C° 0 mm 2 mps 700 mmHg 41%
22:00 +28°C° 0 mm 2 mps 700 mmHg 45%
23:00 +27°C° 0 mm 2 mps 700 mmHg 50%

8 August, Sunday

Time Temperature Precipitation Wind Pressure Humidity
00:00 +27°C° 0 mm 2 mps 700 mmHg 53%
01:00 +26°C° 0 mm 2 mps 700 mmHg 56%
02:00 +26°C° 0 mm 2 mps 700 mmHg 60%
03:00 +25°C° 0 mm 2 mps 700 mmHg 65%
04:00 +25°C° 0 mm 2 mps 700 mmHg 69%
05:00 +25°C° 0 mm 2 mps 700 mmHg 74%
06:00 +26°C° 0 mm 2 mps 700 mmHg 64%
07:00 +28°C° 0 mm 2 mps 701 mmHg 53%
08:00 +29°C° 0 mm 3 mps 701 mmHg 42%
09:00 +31°C° 0 mm 3 mps 701 mmHg 39%
10:00 +33°C° 0 mm 4 mps 702 mmHg 36%
11:00 +34°C° 0 mm 4 mps 702 mmHg 32%
12:00 +34°C° 0 mm 5 mps 702 mmHg 32%
13:00 +35°C° 0 mm 6 mps 701 mmHg 31%
14:00 +35°C° 0 mm 7 mps 701 mmHg 30%
15:00 +34°C° 0 mm 7 mps 701 mmHg 33%
16:00 +33°C° 0 mm 6 mps 701 mmHg 36%
17:00 +32°C° 0 mm 6 mps 701 mmHg 38%
18:00 +29°C° 0 mm 5 mps 701 mmHg 45%
19:00 +28°C° 0 mm 4 mps 701 mmHg 51%
20:00 +27°C° 0 mm 3 mps 701 mmHg 58%
21:00 +27°C° 0 mm 2 mps 701 mmHg 57%
22:00 +26°C° 0 mm 2 mps 701 mmHg 57%
23:00 +26°C° 0 mm 1 mps 701 mmHg 56%

9 August, Monday

Time Temperature Precipitation Wind Pressure Humidity
00:00 +25°C° 0 mm 1 mps 701 mmHg 57%
01:00 +25°C° 0 mm 2 mps 701 mmHg 58%
02:00 +25°C° 0 mm 2 mps 701 mmHg 58%
03:00 +24°C° 0 mm 2 mps 701 mmHg 63%
04:00 +23°C° 0 mm 2 mps 701 mmHg 68%
05:00 +23°C° 0 mm 2 mps 701 mmHg 72%
06:00 +24°C° 0 mm 1 mps 701 mmHg 67%
07:00 +25°C° 0 mm 1 mps 701 mmHg 61%
08:00 +27°C° 0 mm 1 mps 701 mmHg 56%
09:00 +28°C° 0 mm 1 mps 702 mmHg 50%
10:00 +30°C° 0 mm 2 mps 702 mmHg 43%
11:00 +32°C° 0 mm 2 mps 702 mmHg 37%
12:00 +33°C° 0 mm 3 mps 702 mmHg 36%
13:00 +34°C° 0 mm 4 mps 701 mmHg 35%
14:00 +34°C° 0 mm 5 mps 701 mmHg 34%
15:00 +34°C° 0 mm 5 mps 701 mmHg 37%
16:00 +33°C° 0 mm 5 mps 701 mmHg 41%
17:00 +32°C° 0 mm 6 mps 701 mmHg 45%
18:00 +29°C° 0 mm 5 mps 701 mmHg 52%
19:00 +28°C° 0 mm 4 mps 701 mmHg 58%
20:00 +27°C° 0 mm 3 mps 701 mmHg 65%
21:00 +27°C° 0 mm 2 mps 701 mmHg 65%
22:00 +26°C° 0 mm 2 mps 701 mmHg 64%
23:00 +26°C° 0 mm 1 mps 700 mmHg 64%

10 August, Tuesday

Time Temperature Precipitation Wind Pressure Humidity
00:00 +26°C° 0 mm 1 mps 700 mmHg 65%
01:00 +26°C° 0 mm 1 mps 700 mmHg 65%
02:00 +25°C° 0 mm 1 mps 700 mmHg 66%
03:00 +25°C° 0 mm 1 mps 700 mmHg 67%
04:00 +25°C° 0 mm 1 mps 700 mmHg 69%
05:00 +24°C° 0 mm 1 mps 700 mmHg 70%
06:00 +26°C° 0 mm 1 mps 700 mmHg 62%
07:00 +27°C° 0 mm 1 mps 700 mmHg 55%
08:00 +29°C° 0 mm 1 mps 701 mmHg 47%
09:00 +30°C° 0 mm 1 mps 701 mmHg 42%
10:00 +32°C° 0 mm 2 mps 701 mmHg 38%
11:00 +34°C° 0 mm 2 mps 701 mmHg 33%
12:00 +35°C° 0 mm 3 mps 701 mmHg 34%
13:00 +35°C° 0 mm 4 mps 700 mmHg 34%
14:00 +36°C° 0 mm 5 mps 700 mmHg 34%
15:00 +34°C° 0 mm 6 mps 700 mmHg 39%
16:00 +33°C° 0 mm 6 mps 700 mmHg 43%
17:00 +32°C° 0 mm 6 mps 700 mmHg 47%
18:00 +30°C° 0 mm 5 mps 700 mmHg 52%
19:00 +29°C° 0 mm 4 mps 700 mmHg 56%
20:00 +28°C° 0 mm 3 mps 700 mmHg 61%
21:00 +27°C° 0 mm 2 mps 700 mmHg 61%
22:00 +27°C° 0 mm 2 mps 700 mmHg 62%
23:00 +26°C° 0 mm 1 mps 700 mmHg 62%
Show more

We Need Your Consent

Meteoprog and our Service Providers may store and access personal data such as cookies, device identifiers or other similar technologies on your device and process such data to personalise content and ads, as well as provide social media features and to analyse the traffic.

  • Store and/or access information on your device

    Cookies, device identifiers or other information can be stored or accessed on your device for the purposes indicated above.

  • Personalised ads and content, ad and content measurement, audience insights, and products development

    Ads and content can be personalised based on a profile. More data can be added to better personalise ads and content. Ad and content performance can be measured. Insights about the audience who saw the ads and content can be derived. Such data can be used to develop or improve user’s experience, systems and software.

By clicking ‘I Agree’ you will allow the use of indicated cookies, device identifiers, web beacons or other similar technologies. Your settings can be changed in the browser on your device.

For certain purposes, legitimate interests may be relied on, rather than consent. You can read more about this in our Privacy and Cookie Policy.